Time,TemperatureF,DewpointF,PressureIn,WindDirection,WindDirectionDegrees,WindSpeedMPH,WindSpeedGustMPH,Humidity,HourlyPrecipIn,Conditions,Clouds,dailyrainin,SoftwareType,DateUTC
2013-08-20 00:11:00,62.0,60.0,30.08,North,0,0.0,0.0,93,0.00,,,0.01,,2013-08-20 04:11:00,
2013-08-20 00:13:00,62.0,60.0,30.08,North,0,0.0,0.0,93,0.00,,,0.01,,2013-08-20 04:13:00,
2013-08-20 00:23:00,62.0,60.0,30.08,North,0,0.0,0.0,93,0.00,,,0.01,,2013-08-20 04:23:00,
2013-08-20 00:43:00,62.0,60.0,30.08,North,0,0.0,0.0,93,0.00,,,0.01,,2013-08-20 04:43:00,
2013-08-20 00:54:00,62.0,60.0,30.08,North,0,0.0,0.0,93,0.00,,,0.01,,2013-08-20 04:54:00,
2013-08-20 01:02:00,62.0,60.0,30.08,North,0,0.0,0.0,93,0.00,,,0.01,,2013-08-20 05:02:00,
2013-08-20 01:22:00,61.0,59.0,30.08,North,0,0.0,0.0,94,0.00,,,0.01,,2013-08-20 05:22:00,
2013-08-20 01:43:00,60.0,59.0,30.09,North,0,0.0,0.0,96,0.00,,,0.01,,2013-08-20 05:43:00,
2013-08-20 01:52:00,60.0,59.0,30.09,North,0,0.0,0.0,96,0.00,,,0.01,,2013-08-20 05:52:00,
2013-08-20 02:11:00,60.0,59.0,30.09,North,0,0.0,0.0,96,0.00,,,0.01,,2013-08-20 06:11:00,
2013-08-20 02:22:00,60.0,59.0,30.09,North,0,0.0,0.0,96,0.00,,,0.01,,2013-08-20 06:22:00,
2013-08-20 02:42:00,60.0,59.0,30.09,North,0,0.0,0.0,97,0.00,,,0.01,,2013-08-20 06:42:00,
2013-08-20 02:52:00,60.0,59.0,30.08,North,0,0.0,0.0,98,0.00,,,0.01,,2013-08-20 06:52:00,
2013-08-20 03:11:00,59.0,58.0,30.08,North,0,0.0,0.0,97,0.00,,,0.01,,2013-08-20 07:11:00,
2013-08-20 03:22:00,59.0,58.0,30.09,North,0,0.0,0.0,97,0.00,,,0.01,,2013-08-20 07:22:00,
2013-08-20 03:42:00,59.0,58.0,30.09,North,0,0.0,0.0,97,0.00,,,0.01,,2013-08-20 07:42:00,
2013-08-20 03:52:00,59.0,58.0,30.09,North,0,0.0,0.0,98,0.00,,,0.01,,2013-08-20 07:52:00,
2013-08-20 04:11:00,59.0,58.0,30.09,North,0,0.0,0.0,98,0.00,,,0.01,,2013-08-20 08:11:00,
2013-08-20 04:22:00,59.0,58.0,30.09,North,0,0.0,0.0,98,0.00,,,0.01,,2013-08-20 08:22:00,
2013-08-20 04:42:00,59.0,58.0,30.09,North,0,0.0,0.0,98,0.00,,,0.01,,2013-08-20 08:42:00,
2013-08-20 04:52:00,59.0,58.0,30.09,North,0,0.0,0.0,98,0.00,,,0.01,,2013-08-20 08:52:00,
2013-08-20 05:11:00,59.0,58.0,30.10,North,0,0.0,0.0,98,0.00,,,0.01,,2013-08-20 09:11:00,
2013-08-20 05:21:00,59.0,58.0,30.10,North,0,0.0,0.0,98,0.00,,,0.01,,2013-08-20 09:21:00,
2013-08-20 05:42:00,59.0,58.0,30.10,North,0,0.0,0.0,98,0.00,,,0.01,,2013-08-20 09:42:00,
2013-08-20 05:53:00,58.0,57.0,30.10,North,0,0.0,0.0,98,0.00,,,0.01,,2013-08-20 09:53:00,
2013-08-20 06:12:00,59.0,58.0,30.10,North,0,0.0,0.0,98,0.00,,,0.01,,2013-08-20 10:12:00,
2013-08-20 06:23:00,59.0,58.0,30.10,North,0,0.0,0.0,98,0.00,,,0.01,,2013-08-20 10:23:00,
2013-08-20 06:32:00,59.0,58.0,30.10,North,0,0.0,0.0,98,0.00,,,0.01,,2013-08-20 10:32:00,
2013-08-20 06:42:00,59.0,58.0,30.10,North,0,0.0,0.0,98,0.00,,,0.01,,2013-08-20 10:42:00,
2013-08-20 06:52:00,59.0,58.0,30.11,North,0,0.0,0.0,98,0.00,,,0.00,,2013-08-20 10:52:00,
2013-08-20 07:11:00,59.0,58.0,30.11,North,0,0.0,0.0,98,0.00,,,0.00,,2013-08-20 11:11:00,
2013-08-20 07:22:00,58.0,57.0,30.12,North,0,0.0,0.0,98,0.00,,,0.00,,2013-08-20 11:22:00,
2013-08-20 07:42:00,58.0,57.0,30.13,North,0,0.0,0.0,98,0.00,,,0.00,,2013-08-20 11:42:00,
2013-08-20 07:52:00,59.0,58.0,30.13,North,0,0.0,0.0,98,0.00,,,0.00,,2013-08-20 11:52:00,
2013-08-20 08:12:00,59.0,59.0,30.13,North,0,0.0,0.0,99,0.00,,,0.00,,2013-08-20 12:12:00,
2013-08-20 08:21:00,59.0,59.0,30.13,North,0,0.0,0.0,99,0.00,,,0.00,,2013-08-20 12:21:00,
2013-08-20 08:42:00,62.0,61.0,30.14,North,0,0.0,0.0,98,0.00,,,0.00,,2013-08-20 12:42:00,
2013-08-20 08:52:00,64.0,63.0,30.14,North,0,0.0,0.0,96,0.00,,,0.00,,2013-08-20 12:52:00,
2013-08-20 09:11:00,65.0,63.0,30.14,North,0,0.0,0.0,94,0.00,,,0.00,,2013-08-20 13:11:00,
2013-08-20 09:22:00,65.0,63.0,30.14,North,0,0.0,0.0,94,0.00,,,0.00,,2013-08-20 13:22:00,
2013-08-20 09:42:00,69.0,64.0,30.15,WSW,256,1.0,2.0,84,0.00,,,0.00,,2013-08-20 13:42:00,
2013-08-20 09:52:00,70.0,64.0,30.15,West,278,1.0,3.0,82,0.00,,,0.00,,2013-08-20 13:52:00,
2013-08-20 10:11:00,71.0,65.0,30.15,West,281,0.0,3.0,82,0.00,,,0.00,,2013-08-20 14:11:00,
2013-08-20 10:22:00,73.0,66.0,30.15,West,267,0.0,3.0,79,0.00,,,0.00,,2013-08-20 14:22:00,
2013-08-20 10:42:00,74.0,66.0,30.15,WSW,244,1.0,3.0,77,0.00,,,0.00,,2013-08-20 14:42:00,
2013-08-20 10:52:00,74.0,66.0,30.15,WSW,244,1.0,3.0,77,0.00,,,0.00,,2013-08-20 14:52:00,
2013-08-20 11:11:00,76.0,67.0,30.16,West,266,1.0,3.0,74,0.00,,,0.00,,2013-08-20 15:11:00,
2013-08-20 11:22:00,76.0,66.0,30.15,WSW,254,2.0,6.0,72,0.00,,,0.00,,2013-08-20 15:22:00,
2013-08-20 11:34:00,76.0,66.0,30.15,WSW,254,2.0,6.0,72,0.00,,,0.00,,2013-08-20 15:34:00,
2013-08-20 11:43:00,76.0,66.0,30.15,WSW,254,2.0,6.0,72,0.00,,,0.00,,2013-08-20 15:43:00,
2013-08-20 11:54:00,77.0,66.0,30.16,West,262,2.0,5.0,70,0.00,,,0.00,,2013-08-20 15:54:00,
2013-08-20 12:15:00,78.0,65.0,30.16,West,266,2.0,5.0,65,0.00,,,0.00,,2013-08-20 16:15:00,
2013-08-20 12:30:00,-999.0,-99.9,30.16,West,261,3.0,9.0,65,0.00,,,0.00,,2013-08-20 16:30:00,
2013-08-20 12:42:00,79.0,66.0,30.16,WSW,256,1.0,5.0,65,0.00,,,0.00,,2013-08-20 16:42:00,
2013-08-20 12:52:00,79.0,66.0,30.15,West,261,2.0,5.0,64,0.00,,,0.00,,2013-08-20 16:52:00,
2013-08-20 13:12:00,78.0,65.0,30.15,WNW,295,2.0,7.0,64,0.00,,,0.00,,2013-08-20 17:12:00,
2013-08-20 13:24:00,78.0,65.0,30.15,WNW,295,2.0,7.0,64,0.00,,,0.00,,2013-08-20 17:24:00,
2013-08-20 13:43:00,80.0,65.0,30.15,SW,226,3.0,8.0,60,0.00,,,0.00,,2013-08-20 17:43:00,
2013-08-20 13:52:00,80.0,65.0,30.15,SW,216,3.0,8.0,60,0.00,,,0.00,,2013-08-20 17:52:00,
2013-08-20 14:12:00,80.0,65.0,30.14,WSW,255,3.0,7.0,61,0.00,,,0.00,,2013-08-20 18:12:00,
2013-08-20 14:22:00,81.0,66.0,30.14,WSW,258,3.0,9.0,60,0.00,,,0.00,,2013-08-20 18:22:00,
2013-08-20 14:52:00,81.0,67.0,30.13,West,275,4.0,9.0,62,0.00,,,0.00,,2013-08-20 18:52:00,
2013-08-20 15:11:00,81.0,64.0,30.12,West,264,3.0,7.0,57,0.00,,,0.00,,2013-08-20 19:11:00,
2013-08-20 15:22:00,82.0,65.0,30.12,SW,221,3.0,6.0,56,0.00,,,0.00,,2013-08-20 19:22:00,
2013-08-20 15:32:00,82.0,65.0,30.12,SW,221,3.0,6.0,56,0.00,,,0.00,,2013-08-20 19:32:00,
2013-08-20 15:42:00,82.0,65.0,30.12,SW,221,3.0,6.0,56,0.00,,,0.00,,2013-08-20 19:42:00,
2013-08-20 15:52:00,82.0,65.0,30.11,West,265,3.0,7.0,56,0.00,,,0.00,,2013-08-20 19:52:00,
2013-08-20 16:10:00,84.0,66.0,30.11,SW,233,2.0,6.0,54,0.00,,,0.00,,2013-08-20 20:10:00,
2013-08-20 16:12:00,83.0,65.0,30.11,SW,218,2.0,6.0,54,0.00,,,0.00,,2013-08-20 20:12:00,
2013-08-20 16:22:00,83.0,65.0,30.11,SW,218,2.0,6.0,54,0.00,,,0.00,,2013-08-20 20:22:00,
2013-08-20 16:42:00,84.0,66.0,30.11,SW,233,2.0,6.0,54,0.00,,,0.00,,2013-08-20 20:42:00,
2013-08-20 16:52:00,84.0,66.0,30.11,SW,233,2.0,6.0,54,0.00,,,0.00,,2013-08-20 20:52:00,
2013-08-20 17:03:00,84.0,66.0,30.11,SW,233,2.0,6.0,54,0.00,,,0.00,,2013-08-20 21:03:00,